KT4FD Weather Reports


Display with metric or nautical units.
time (UTC)temp
F
wind
direction
speed
MPH
gust
MPH
rain 1hr
in
rain 24hr
in
rain mn
in
humidity
%
barometer
mb
20260510183001 78 214 5.0 12.0 0.00 0.00 0.00 51 1018.5
20260510182002 78 227 2.0 7.0 0.00 0.00 0.00 55 1018.5
20260510181001 78 311 3.0 10.0 0.00 0.00 0.00 53 1018.5
20260510180002 78 220 3.0 9.0 0.00 0.00 0.00 51 1018.6
20260510175002 77 195 3.0 7.0 0.00 0.00 0.00 53 1018.7
20260510174001 77 196 4.0 9.0 0.00 0.00 0.00 51 1018.7
20260510173002 76 230 2.0 9.0 0.00 0.00 0.00 57 1018.8
20260510142001 68 58 5.0 8.0 0.00 0.00 0.00 73 1019.3
20260510141002 66 259 0.0 3.0 0.00 0.00 0.00 79 1019.4
20260510140002 65 255 1.0 3.0 0.00 0.00 0.00 80 1019.5
20260510135001 65 257 1.0 3.0 0.00 0.00 0.00 85 1019.5
20260510134002 64 273 1.0 3.0 0.00 0.00 0.00 86 1019.4
20260510133002 64 279 0.0 1.0 0.00 0.00 0.00 86 1019.2
20260510111002 53 256 1.0 3.0 0.00 0.00 0.00 87 1018.0
20260510110002 53 257 0.0 2.0 0.00 0.00 0.00 86 1017.7
20260510105002 54 257 1.0 3.0 0.00 0.00 0.00 87 1017.7
20260510104002 54 259 2.0 6.0 0.00 0.00 0.00 86 1017.3
20260510103001 54 333 0.0 0.0 0.00 0.00 0.00 87 1017.2
20260510102002 54 333 0.0 0.0 0.00 0.00 0.00 87 1017.1
20260510060001 58 247 0.0 0.0 0.00 0.00 0.00 86 1016.3
20260510055002 58 247 0.0 0.0 0.00 0.00 0.00 86 1016.2
20260510054002 58 247 0.0 0.0 0.00 0.00 0.00 86 1016.4
20260510053001 58 247 0.0 0.0 0.00 0.00 0.00 86 1016.5
20260510052002 58 247 0.0 0.0 0.00 0.00 0.00 86 1016.6
20260510051002 58 247 0.0 0.0 0.00 0.00 0.00 86 1016.6
20260510050001 58 247 0.0 1.0 0.00 0.00 0.00 86 1016.7
20260510045002 58 247 0.0 1.0 0.00 0.00 0.00 86 1017.0
20260510044001 58 247 0.0 1.0 0.00 0.00 0.00 86 1016.8
20260510043002 58 247 0.0 1.0 0.00 0.00 0.00 86 1016.9
20260510042002 58 247 0.0 2.0 0.00 0.00 0.00 86 1017.0
20260510041002 58 247 1.0 2.0 0.00 0.00 0.00 86 1016.9
20260510035002 59 247 0.0 0.0 0.00 0.00 0.00 86 1016.8
20260510034001 59 247 0.0 3.0 0.00 0.00 0.00 86 1016.7
20260510033001 59 247 2.0 3.0 0.00 0.00 0.00 86 1016.8
20260510032002 59 247 1.0 3.0 0.00 0.00 0.00 86 1016.8
20260510031002 59 248 1.0 3.0 0.00 0.00 0.00 86 1016.6
20260510030002 60 248 0.0 2.0 0.00 0.00 0.00 86 1016.5
20260510015002 62 248 0.0 1.0 0.00 0.00 0.00 83 1015.5
20260510014002 62 248 0.0 0.0 0.00 0.00 0.00 83 1015.5
20260510013002 63 248 0.0 0.0 0.00 0.00 0.00 82 1015.5
20260510012002 63 248 0.0 0.0 0.00 0.00 0.00 82 1015.3
20260510011001 63 248 0.0 0.0 0.00 0.00 0.00 81 1015.3
20260510010002 64 248 0.0 0.0 0.00 0.00 0.00 79 1015.3
20260510005002 64 248 0.0 0.0 0.00 0.00 0.00 79 1015.1
20260510004001 64 248 0.0 2.0 0.00 0.00 0.00 78 1015.0
20260510003002 65 248 0.0 3.0 0.00 0.00 0.00 78 1015.0
20260510002001 65 248 1.0 3.0 0.00 0.00 0.00 77 1015.0
20260510001002 66 248 2.0 5.0 0.00 0.00 0.00 76 1014.8
20260510000002 66 247 3.0 5.0 0.00 0.00 0.00 75 1014.8
20260509235002 67 248 2.0 6.0 0.00 0.00 0.00 74 1014.8
20260509224001 71 282 5.0 9.0 0.00 0.00 0.00 69 1013.9
20260509223002 71 277 8.0 13.0 0.00 0.00 0.00 67 1014.0
20260509222002 71 271 6.0 10.0 0.00 0.00 0.00 66 1014.0
20260509221001 71 275 5.0 9.0 0.00 0.00 0.00 66 1013.8
20260509220002 71 250 5.0 10.0 0.00 0.00 0.00 65 1013.8
20260509215002 72 308 6.0 12.0 0.00 0.00 0.00 64 1013.7
20260509204002 71 247 3.0 8.0 0.00 0.00 0.00 71 1013.6
20260509203001 71 214 5.0 9.0 0.00 0.00 0.00 68 1013.6
20260509202001 71 203 6.0 10.0 0.00 0.00 0.00 68 1013.5
20260509201002 71 229 5.0 8.0 0.00 0.00 0.00 68 1013.4
20260509200002 72 214 4.0 10.0 0.00 0.00 0.00 66 1013.4
20260509195002 72 246 3.0 8.0 0.00 0.00 0.00 66 1013.6
20260509194002 72 236 5.0 10.0 0.00 0.00 0.00 64 1013.5
20260509193002 72 213 4.0 12.0 0.00 0.00 0.00 68 1013.7
20260509192002 71 199 6.0 10.0 0.00 0.00 0.00 66 1013.7
20260509191002 71 247 4.0 12.0 0.00 0.00 0.00 68 1013.6